This is the latest recevied weather packets stored in our database for station/object VE6HFD-WX. If no packets are shown the sender has not sent any weather packets the latest 10 day(s).
| Time | Temp. | Humidity | Pressure | Rain* | Wind** | Luminosity | Snow |
|---|---|---|---|---|---|---|---|
| 1777842325 | 18.89° C | 28% | 1005.9 hPa | 0 mm | - | - | - |
| 1777842006 | 19.44° C | 28% | 1005.7 hPa | 0 mm | - | - | - |
| 1777841706 | 18.89° C | 29% | 1005.9 hPa | 0 mm | - | - | - |
| 1777841376 | 19.44° C | 28% | 1005.8 hPa | 0 mm | - | - | - |
| 1777841046 | 19.44° C | 28% | 1005.8 hPa | 0 mm | - | - | - |
| 1777840717 | 19.44° C | 29% | 1006 hPa | 0 mm | - | - | - |
| 1777840386 | 18.89° C | 29% | 1005.9 hPa | 0 mm | - | - | - |
| 1777840086 | 18.89° C | 29% | 1006 hPa | 0 mm | - | - | - |
| 1777839786 | 18.89° C | 29% | 1005.9 hPa | 0 mm | - | - | - |
| 1777839456 | 18.89° C | 31% | 1006 hPa | 0 mm | - | - | - |
| 1777839156 | 18.33° C | 32% | 1005.9 hPa | 0 mm | - | - | - |
| 1777838856 | 18.89° C | 31% | 1006 hPa | 0 mm | - | - | - |
| 1777838526 | 18.89° C | 31% | 1005.9 hPa | 0 mm | - | - | - |
| 1777838226 | 18.89° C | 31% | 1005.9 hPa | 0 mm | - | - | - |
| 1777837926 | 18.89° C | 31% | 1005.9 hPa | 0 mm | - | - | - |
| 1777837626 | 18.33° C | 32% | 1005.7 hPa | 0 mm | - | - | - |
| 1777837326 | 18.89° C | 31% | 1005.7 hPa | 0 mm | - | - | - |
| 1777836996 | 18.33° C | 33% | 1005.7 hPa | 0 mm | - | - | - |
| 1777836696 | 18.89° C | 32% | 1005.8 hPa | 0 mm | - | - | - |
| 1777836366 | 18.89° C | 31% | 1005.7 hPa | 0 mm | - | - | - |
| 1777836036 | 19.44° C | 31% | 1005.7 hPa | 0 mm | - | - | - |
| 1777835736 | 19.44° C | 30% | 1005.7 hPa | 0 mm | - | - | - |
| 1777835406 | 19.44° C | 29% | 1005.6 hPa | 0 mm | - | - | - |
| 1777835106 | 19.44° C | 29% | 1005.6 hPa | 0 mm | - | - | - |
| 1777834776 | 20° C | 29% | 1005.6 hPa | 0 mm | - | - | - |
* Rain latest hour (hover to see other rain measurements)
** Current wind speed in m/s (hover to see current wind gust speed)